This demonstration page uses our WeatherBlox Daily Observations layout. Learn more.

36.17497, -115.13722

Hourly Observations for October 17, 2018

Temp ( °F °C ) Dew Point ( °F °C ) Humidity (%) Winds ( mph kmh ) Pressure ( in mb ) Visibility ( mi km ) Precip ( " mm )
12:53 am 00:53 Mostly Cloudy 54 12.2 23 -5 30 30 NW 6 9 30.15 1021 10 16.09344 0 0
1:53 am 01:53 Partly Cloudy 55 12.8 25 -3.9 31 31 NW 6 9 30.15 1021 10 16.09344 0 0
2:53 am 02:53 Clear 53 11.7 23 -5 31 31 NW 5 7 30.15 1021 10 16.09344 0 0
3:53 am 03:53 Clear 51 10.6 23 -5 33 33 NW 7 11 30.15 1021 10 16.09344 0 0
4:53 am 04:53 Clear 51 10.6 23 -5 33 33 ESE 5 7 30.15 1021 10 16.09344 0 0
5:53 am 05:53 Clear 51 10.6 24 -4.4 35 35 WNW 5 7 30.18 1022 10 16.09344 0 0
6:53 am 06:53 Sunny 51 10.6 24 -4.4 35 35 WNW 6 9 30.18 1022 10 16.09344 0 0
7:53 am 07:53 Sunny 53 11.7 24 -4.4 32 32 Calm 30.21 1023 10 16.09344 0 0
8:53 am 08:53 Sunny 59 15 20 -6.7 22 22 Calm 30.24 1024 10 16.09344 0 0
9:53 am 09:53 Sunny 63 17.2 23 -5 22 22 ESE 8 13 30.24 1024 10 16.09344 0 0
10:53 am 10:53 Sunny 67 19.4 31 -0.6 26 26 ENE 10 17 30.21 1023 10 16.09344 0 0
11:53 am 11:53 Sunny 68 20 33 0.6 27 27 E 10 17 30.21 1023 10 16.09344 0 0
12:53 pm 12:53 Sunny 70 21.1 33 0.6 26 26 E 14 22 30.18 1022 10 16.09344 0 0
1:53 pm 13:53 Sunny 70 21.1 32 0 25 25 E 9 15 30.15 1021 10 16.09344 0 0
2:53 pm 14:53 Sunny 71 21.7 31 -0.6 23 23 ESE 12 19 30.12 1020 10 16.09344 0 0
3:53 pm 15:53 Sunny 71 21.7 32 0 24 24 ENE 12 19 30.12 1020 10 16.09344 0 0
4:53 pm 16:53 Sunny 70 21.1 31 -0.6 23 23 E 7 11 30.12 1020 10 16.09344 0 0
5:53 pm 17:53 Sunny 69 20.6 31 -0.6 24 24 ESE 6 9 30.12 1020 10 16.09344 0 0
6:53 pm 18:53 Clear 67 19.4 31 -0.6 26 26 Calm 30.15 1021 10 16.09344 0 0
7:53 pm 19:53 Clear 66 18.9 31 -0.6 27 27 Calm 30.15 1021 10 16.09344 0 0
8:53 pm 20:53 Clear 64 17.8 33 0.6 32 32 WSW 5 7 30.15 1021 10 16.09344 0 0
9:53 pm 21:53 Clear 61 16.1 33 0.6 35 35 WNW 6 9 30.15 1021 10 16.09344 0 0
10:53 pm 22:53 Clear 59 15 33 0.6 38 38 NW 6 9 30.15 1021 10 16.09344 0 0
11:53 pm 23:53 Clear 57 13.9 33 0.6 41 41 NNW 5 7 30.15 1021 10 16.09344 0 0

Powered by AerisWeather